Location: Çayiçi
(36.4667°N, 30.2333°E)
Time: 01:37:51
(UTC+00:00)

RESURS DK-1 - Pass Details

Date: 09 February 2023
Orbit: 548 x 558 km, 69.9° (Epoch: 01 April)

Event Time Altitude Azimuth Distance (km) Brightness Sun altitude
Rises 16:20:31 0° 327° (NNW) 2,737 6.2 -10.0°
Reaches altitude 10° 16:22:50 10° 319° (NW) 1,840 5.4 -10.5°
Maximum altitude 16:26:37 37° 252° (WSW) 881 4.1 -11.3°
Drops below altitude 10° 16:30:23 10° 185° (S) 1,833 5.2 -12.0°
Sets 16:32:42 0° 177° (S) 2,725 5.9 -12.5°
